| time (UTC) | temp C | wind direction | speed KPH | gust KPH | rain 1hr cm | rain 24hr cm | rain mn cm | humidity % | barometer mb |
| 20260504014934 | 7 | 31 | 0.0 | 0.0 | 0.00 | 0.00 | 0.00 | 73 | 1016.6 |
| 20260504014430 | 7 | 61 | 0.0 | 0.0 | 0.00 | 0.00 | 0.00 | 76 | 1016.7 |
| 20260504013927 | 7 | 62 | 0.0 | 0.0 | 0.00 | 0.00 | 0.00 | 79 | 1016.6 |
| 20260504013426 | 7 | 62 | 0.0 | 0.0 | 0.00 | 0.00 | 0.00 | 75 | 1016.8 |
| 20260504012926 | 7 | 62 | 0.0 | 0.0 | 0.00 | 0.00 | 0.00 | 77 | 1016.9 |
| 20260504012425 | 8 | 64 | 0.0 | 0.0 | 0.00 | 0.00 | 0.00 | 78 | 1016.9 |
| 20260504011922 | 8 | 63 | 0.0 | 0.0 | 0.00 | 0.00 | 0.00 | 71 | 1016.8 |
| 20260504011419 | 9 | 64 | 0.0 | 0.0 | 0.00 | 0.00 | 0.00 | 66 | 1016.9 |
| 20260504010914 | 9 | 64 | 0.0 | 0.0 | 0.00 | 0.00 | 0.00 | 64 | 1016.9 |
| 20260504010411 | 9 | 64 | 0.0 | 0.0 | 0.00 | 0.00 | 0.00 | 65 | 1016.8 |
| 20260504005907 | 10 | 64 | 0.0 | 0.0 | 0.00 | 0.00 | 0.00 | 66 | 1016.8 |
| 20260504005403 | 10 | 65 | 0.0 | 0.0 | 0.00 | 0.00 | 0.00 | 68 | 1016.8 |
| 20260504004901 | 10 | 64 | 0.0 | 0.0 | 0.00 | 0.00 | 0.00 | 68 | 1016.5 |
| 20260504004359 | 10 | 64 | 0.0 | 0.0 | 0.00 | 0.00 | 0.00 | 59 | 1016.6 |
| 20260504003855 | 11 | 64 | 0.0 | 0.0 | 0.00 | 0.00 | 0.00 | 58 | 1016.6 |
| 20260504003352 | 11 | 64 | 0.0 | 0.0 | 0.00 | 0.00 | 0.00 | 62 | 1016.6 |
| 20260504002849 | 11 | 64 | 0.0 | 0.0 | 0.00 | 0.00 | 0.00 | 57 | 1016.7 |
| 20260504002346 | 12 | 64 | 0.0 | 0.0 | 0.00 | 0.00 | 0.00 | 57 | 1016.4 |
| 20260504001843 | 12 | 64 | 0.0 | 0.0 | 0.00 | 0.00 | 0.00 | 54 | 1016.5 |
| 20260504001340 | 13 | 64 | 0.0 | 0.0 | 0.00 | 0.00 | 0.00 | 54 | 1016.4 |
| 20260504000837 | 13 | 64 | 0.0 | 0.0 | 0.00 | 0.00 | 0.00 | 54 | 1016.4 |
| 20260504000334 | 14 | 49 | 0.0 | 0.0 | 0.00 | 0.00 | 0.00 | 48 | 1016.4 |
| 20260503235832 | 14 | 61 | 0.0 | 0.0 | 0.00 | 0.00 | 0.00 | 52 | 1016.3 |
| 20260503235329 | 15 | 47 | 0.0 | 1.6 | 0.00 | 0.00 | 0.00 | 48 | 1016.7 |
| 20260503234826 | 15 | 45 | 0.0 | 1.6 | 0.00 | 0.00 | 0.00 | 48 | 1016.6 |
| 20260503234324 | 15 | 21 | 1.6 | 3.2 | 0.00 | 0.00 | 0.00 | 46 | 1016.6 |
| 20260503233822 | 15 | 23 | 1.6 | 4.8 | 0.00 | 0.00 | 0.00 | 48 | 1016.7 |
| 20260503233317 | 15 | 26 | 1.6 | 1.6 | 0.00 | 0.00 | 0.00 | 47 | 1016.5 |
| 20260503232814 | 15 | 358 | 4.8 | 4.8 | 0.00 | 0.00 | 0.00 | 44 | 1016.6 |
| 20260503232312 | 16 | 61 | 1.6 | 3.2 | 0.00 | 0.00 | 0.00 | 46 | 1016.8 |
| 20260503231809 | 16 | 345 | 3.2 | 3.2 | 0.00 | 0.00 | 0.00 | 44 | 1016.8 |
| 20260503231306 | 16 | 30 | 6.4 | 11.3 | 0.00 | 0.00 | 0.00 | 43 | 1016.9 |
| 20260503230802 | 16 | 324 | 4.8 | 8.0 | 0.00 | 0.00 | 0.00 | 41 | 1016.9 |
| 20260503230259 | 16 | 327 | 4.8 | 9.7 | 0.00 | 0.00 | 0.00 | 43 | 1016.9 |
| 20260503225757 | 16 | 23 | 0.0 | 3.2 | 0.00 | 0.00 | 0.00 | 46 | 1016.8 |
| 20260503225252 | 16 | 346 | 1.6 | 3.2 | 0.00 | 0.00 | 0.00 | 41 | 1016.9 |
| 20260503224749 | 16 | 22 | 0.0 | 3.2 | 0.00 | 0.00 | 0.00 | 40 | 1017.0 |
| 20260503224247 | 17 | 218 | 1.6 | 3.2 | 0.00 | 0.00 | 0.00 | 41 | 1017.0 |
| 20260503223744 | 17 | 14 | 4.8 | 4.8 | 0.00 | 0.00 | 0.00 | 40 | 1016.9 |
| 20260503223241 | 17 | 26 | 4.8 | 4.8 | 0.00 | 0.00 | 0.00 | 39 | 1017.0 |
| 20260503222737 | 17 | 268 | 1.6 | 8.0 | 0.00 | 0.00 | 0.00 | 44 | 1017.0 |
| 20260503222235 | 17 | 34 | 0.0 | 1.6 | 0.00 | 0.00 | 0.00 | 41 | 1016.9 |
| 20260503221734 | 17 | 2 | 3.2 | 4.8 | 0.00 | 0.00 | 0.00 | 39 | 1017.0 |
| 20260503221231 | 18 | 356 | 3.2 | 3.2 | 0.00 | 0.00 | 0.00 | 46 | 1017.0 |
| 20260503220727 | 17 | 344 | 1.6 | 4.8 | 0.00 | 0.00 | 0.00 | 42 | 1017.0 |
| 20260503220224 | 17 | 333 | 4.8 | 9.7 | 0.00 | 0.00 | 0.00 | 45 | 1017.2 |
| 20260503215721 | 17 | 310 | 1.6 | 8.0 | 0.00 | 0.00 | 0.00 | 48 | 1017.2 |
| 20260503215218 | 17 | 19 | 4.8 | 8.0 | 0.00 | 0.00 | 0.00 | 45 | 1017.1 |
| 20260503214716 | 17 | 352 | 4.8 | 8.0 | 0.00 | 0.00 | 0.00 | 45 | 1017.3 |
| 20260503214212 | 18 | 151 | 3.2 | 4.8 | 0.00 | 0.00 | 0.00 | 45 | 1017.2 |
| 20260503213711 | 17 | 317 | 1.6 | 9.7 | 0.00 | 0.00 | 0.00 | 48 | 1017.3 |
| 20260503213208 | 18 | 216 | 3.2 | 4.8 | 0.00 | 0.00 | 0.00 | 44 | 1017.3 |
| 20260503212705 | 17 | 340 | 4.8 | 8.0 | 0.00 | 0.00 | 0.00 | 43 | 1017.5 |
| 20260503212202 | 17 | 329 | 3.2 | 11.3 | 0.00 | 0.00 | 0.00 | 48 | 1017.4 |
| 20260503211700 | 18 | 262 | 3.2 | 8.0 | 0.00 | 0.00 | 0.00 | 48 | 1017.4 |
| 20260503211155 | 18 | 5 | 3.2 | 8.0 | 0.00 | 0.00 | 0.00 | 43 | 1017.5 |
| 20260503210652 | 18 | 252 | 3.2 | 4.8 | 0.00 | 0.00 | 0.00 | 43 | 1017.5 |
| 20260503210148 | 18 | 343 | 1.6 | 3.2 | 0.00 | 0.00 | 0.00 | 45 | 1017.4 |
| 20260503205644 | 17 | 108 | 3.2 | 3.2 | 0.00 | 0.00 | 0.00 | 43 | 1017.4 |
| 20260503205140 | 17 | 14 | 4.8 | 9.7 | 0.00 | 0.00 | 0.00 | 44 | 1017.6 |
| 20260503204637 | 17 | 328 | 4.8 | 14.5 | 0.00 | 0.00 | 0.00 | 47 | 1017.6 |
| 20260503204135 | 17 | 334 | 4.8 | 11.3 | 0.00 | 0.00 | 0.00 | 43 | 1017.7 |
| 20260503203632 | 17 | 314 | 6.4 | 11.3 | 0.00 | 0.00 | 0.00 | 48 | 1017.7 |
| 20260503203129 | 17 | 349 | 4.8 | 8.0 | 0.00 | 0.00 | 0.00 | 44 | 1017.9 |
| 20260503202626 | 18 | 8 | 8.0 | 11.3 | 0.00 | 0.00 | 0.00 | 43 | 1018.1 |
| 20260503202124 | 18 | 359 | 1.6 | 3.2 | 0.00 | 0.00 | 0.00 | 45 | 1018.1 |
| 20260503201622 | 17 | 359 | 3.2 | 3.2 | 0.00 | 0.00 | 0.00 | 44 | 1018.1 |
| 20260503201119 | 18 | 13 | 1.6 | 4.8 | 0.00 | 0.00 | 0.00 | 46 | 1018.3 |
| 20260503200615 | 17 | 267 | 3.2 | 3.2 | 0.00 | 0.00 | 0.00 | 46 | 1018.3 |
| 20260503200112 | 18 | 13 | 6.4 | 11.3 | 0.00 | 0.00 | 0.00 | 43 | 1018.4 |
| 20260503195609 | 17 | 341 | 6.4 | 11.3 | 0.00 | 0.00 | 0.00 | 44 | 1018.6 |
| 20260503195106 | 18 | 333 | 1.6 | 4.8 | 0.00 | 0.00 | 0.00 | 55 | 1018.7 |
| 20260503194604 | 18 | 0 | 4.8 | 11.3 | 0.00 | 0.00 | 0.00 | 48 | 1018.6 |
| 20260503194103 | 17 | 23 | 0.0 | 1.6 | 0.00 | 0.00 | 0.00 | 51 | 1018.8 |
| 20260503193600 | 17 | 338 | 3.2 | 8.0 | 0.00 | 0.00 | 0.00 | 46 | 1018.6 |
| 20260503193056 | 17 | 327 | 4.8 | 8.0 | 0.00 | 0.00 | 0.00 | 44 | 1018.9 |
| 20260503192552 | 17 | 111 | 1.6 | 8.0 | 0.00 | 0.00 | 0.00 | 43 | 1018.9 |
| 20260503192048 | 17 | 354 | 4.8 | 16.1 | 0.00 | 0.00 | 0.00 | 45 | 1018.8 |
| 20260503191545 | 17 | 44 | 3.2 | 11.3 | 0.00 | 0.00 | 0.00 | 44 | 1018.9 |
| 20260503191042 | 17 | 40 | 0.0 | 3.2 | 0.00 | 0.00 | 0.00 | 52 | 1019.0 |
| 20260503190539 | 17 | 301 | 11.3 | 16.1 | 0.00 | 0.00 | 0.00 | 48 | 1019.1 |
| 20260503190036 | 17 | 311 | 3.2 | 4.8 | 0.00 | 0.00 | 0.00 | 50 | 1019.2 |
| 20260503185533 | 17 | 225 | 6.4 | 8.0 | 0.00 | 0.00 | 0.00 | 42 | 1019.1 |
| 20260503185032 | 17 | 231 | 1.6 | 8.0 | 0.00 | 0.00 | 0.00 | 47 | 1019.2 |
| 20260503184529 | 17 | 275 | 3.2 | 4.8 | 0.00 | 0.00 | 0.00 | 44 | 1019.3 |
| 20260503184025 | 16 | 356 | 3.2 | 11.3 | 0.00 | 0.00 | 0.00 | 43 | 1019.4 |
| 20260503183522 | 17 | 9 | 3.2 | 8.0 | 0.00 | 0.00 | 0.00 | 45 | 1019.5 |
| 20260503183019 | 16 | 34 | 1.6 | 8.0 | 0.00 | 0.00 | 0.00 | 51 | 1019.4 |
| 20260503182518 | 16 | 340 | 11.3 | 16.1 | 0.00 | 0.00 | 0.00 | 47 | 1019.5 |
| 20260503182015 | 16 | 65 | 0.0 | 9.7 | 0.00 | 0.00 | 0.00 | 39 | 1019.7 |
| 20260503181512 | 16 | 156 | 3.2 | 8.0 | 0.00 | 0.00 | 0.00 | 41 | 1019.7 |
| 20260503181008 | 15 | 30 | 4.8 | 9.7 | 0.00 | 0.00 | 0.00 | 45 | 1019.8 |
| 20260503180506 | 16 | 58 | 0.0 | 4.8 | 0.00 | 0.00 | 0.00 | 42 | 1019.8 |
| 20260503180002 | 16 | 263 | 4.8 | 4.8 | 0.00 | 0.00 | 0.00 | 45 | 1019.9 |
| 20260503175500 | 15 | 217 | 6.4 | 12.9 | 0.00 | 0.00 | 0.00 | 51 | 1019.9 |
| 20260503174956 | 15 | 292 | 1.6 | 4.8 | 0.00 | 0.00 | 0.00 | 50 | 1020.1 |
| 20260503174454 | 14 | 23 | 1.6 | 11.3 | 0.00 | 0.00 | 0.00 | 55 | 1020.2 |
| 20260503173949 | 15 | 345 | 1.6 | 3.2 | 0.00 | 0.00 | 0.00 | 51 | 1020.4 |
| 20260503173445 | 14 | 326 | 8.0 | 11.3 | 0.00 | 0.00 | 0.00 | 53 | 1020.4 |
| 20260503172942 | 15 | 2 | 1.6 | 3.2 | 0.00 | 0.00 | 0.00 | 51 | 1020.2 |
| 20260503172440 | 15 | 232 | 1.6 | 4.8 | 0.00 | 0.00 | 0.00 | 60 | 1020.5 |
| 20260503171936 | 15 | 17 | 3.2 | 4.8 | 0.00 | 0.00 | 0.00 | 55 | 1020.4 |
| 20260503171433 | 15 | 3 | 1.6 | 3.2 | 0.00 | 0.00 | 0.00 | 55 | 1020.6 |
| 20260503170931 | 13 | 196 | 1.6 | 1.6 | 0.00 | 0.00 | 0.00 | 58 | 1020.5 |
| 20260503170426 | 13 | 20 | 6.4 | 8.0 | 0.00 | 0.00 | 0.00 | 58 | 1020.8 |
| 20260503150819 | 11 | 95 | 4.8 | 4.8 | 0.00 | 0.00 | 0.00 | 61 | 1021.6 |
| 20260503150315 | 11 | 18 | 3.2 | 9.7 | 0.00 | 0.00 | 0.00 | 67 | 1021.3 |
| 20260503140239 | 10 | 46 | 1.6 | 4.8 | 0.00 | 0.00 | 0.00 | 68 | 1021.3 |
| 20260503131209 | 8 | 46 | 4.8 | 11.3 | 0.00 | 0.00 | 0.00 | 77 | 1021.0 |
| 20260503130707 | 8 | 34 | 6.4 | 8.0 | 0.00 | 0.00 | 0.00 | 76 | 1021.2 |
| 20260503130204 | 7 | 61 | 4.8 | 8.0 | 0.00 | 0.00 | 0.00 | 77 | 1020.9 |
| 20260503120129 | 5 | 58 | 0.0 | 0.0 | 0.00 | 0.00 | 0.00 | 95 | 1020.6 |
| 20260503110557 | 3 | 19 | 0.0 | 1.6 | 0.00 | 0.00 | 0.00 | 98 | 1019.8 |
| 20260503090444 | 3 | 19 | 1.6 | 4.8 | 0.00 | 0.00 | 0.00 | 96 | 1018.9 |
| 20260503081410 | 3 | 36 | 0.0 | 0.0 | 0.00 | 0.00 | 0.00 | 95 | 1018.6 |
| 20260503080907 | 3 | 42 | 0.0 | 0.0 | 0.00 | 0.00 | 0.00 | 95 | 1018.7 |
| 20260503080404 | 3 | 42 | 0.0 | 0.0 | 0.00 | 0.00 | 0.00 | 94 | 1018.6 |
| 20260503072840 | 4 | 34 | 0.0 | 0.0 | 0.00 | 0.00 | 0.00 | 94 | 1018.4 |
| 20260503072337 | 4 | 31 | 0.0 | 0.0 | 0.00 | 0.00 | 0.00 | 94 | 1018.3 |
| 20260503071833 | 5 | 36 | 0.0 | 0.0 | 0.00 | 0.00 | 0.00 | 94 | 1018.2 |
| 20260503071331 | 5 | 17 | 0.0 | 0.0 | 0.00 | 0.00 | 0.00 | 94 | 1018.2 |
| 20260503070827 | 5 | 31 | 0.0 | 0.0 | 0.00 | 0.00 | 0.00 | 94 | 1018.3 |
| 20260503070325 | 5 | 29 | 1.6 | 3.2 | 0.00 | 0.00 | 0.00 | 95 | 1018.1 |
| 20260503060250 | 4 | 31 | 0.0 | 0.0 | 0.00 | 0.00 | 0.00 | 97 | 1018.1 |
| 20260503054737 | 5 | 34 | 0.0 | 0.0 | 0.00 | 0.00 | 0.00 | 97 | 1018.2 |
| 20260503054234 | 5 | 33 | 0.0 | 0.0 | 0.00 | 0.00 | 0.00 | 97 | 1018.1 |
| 20260503053731 | 4 | 33 | 0.0 | 0.0 | 0.00 | 0.00 | 0.00 | 96 | 1017.9 |
| 20260503053230 | 4 | 37 | 0.0 | 0.0 | 0.00 | 0.00 | 0.00 | 96 | 1018.0 |
| 20260503052726 | 5 | 36 | 0.0 | 0.0 | 0.00 | 0.00 | 0.00 | 96 | 1018.1 |
| 20260503052223 | 5 | 37 | 0.0 | 0.0 | 0.00 | 0.00 | 0.00 | 95 | 1017.7 |
| 20260503051718 | 5 | 32 | 0.0 | 0.0 | 0.00 | 0.00 | 0.00 | 95 | 1018.0 |
| 20260503051216 | 5 | 8 | 1.6 | 3.2 | 0.00 | 0.00 | 0.00 | 95 | 1018.0 |
| 20260503050712 | 5 | 32 | 0.0 | 1.6 | 0.00 | 0.00 | 0.00 | 95 | 1018.0 |
| 20260503050209 | 5 | 25 | 1.6 | 1.6 | 0.00 | 0.00 | 0.00 | 94 | 1018.0 |
| 20260503045706 | 5 | 329 | 1.6 | 3.2 | 0.00 | 0.00 | 0.00 | 94 | 1017.9 |
| 20260503045204 | 5 | 14 | 0.0 | 1.6 | 0.00 | 0.00 | 0.00 | 94 | 1017.7 |
| 20260503044700 | 5 | 29 | 0.0 | 0.0 | 0.00 | 0.00 | 0.00 | 94 | 1018.0 |
| 20260503044157 | 5 | 344 | 0.0 | 1.6 | 0.00 | 0.00 | 0.00 | 93 | 1018.1 |
| 20260503043654 | 5 | 27 | 0.0 | 0.0 | 0.00 | 0.00 | 0.00 | 93 | 1017.9 |
| 20260503043152 | 5 | 15 | 1.6 | 1.6 | 0.00 | 0.00 | 0.00 | 93 | 1017.9 |
| 20260503042647 | 5 | 15 | 0.0 | 4.8 | 0.00 | 0.00 | 0.00 | 93 | 1017.9 |
| 20260503042144 | 6 | 31 | 0.0 | 1.6 | 0.00 | 0.00 | 0.00 | 92 | 1018.0 |
| 20260503041640 | 6 | 22 | 0.0 | 4.8 | 0.00 | 0.00 | 0.00 | 92 | 1018.1 |
| 20260503041138 | 6 | 347 | 3.2 | 4.8 | 0.00 | 0.00 | 0.00 | 91 | 1017.7 |
| 20260503040636 | 6 | 4 | 0.0 | 3.2 | 0.00 | 0.00 | 0.00 | 91 | 1017.9 |
| 20260503040133 | 6 | 12 | 3.2 | 8.0 | 0.00 | 0.00 | 0.00 | 91 | 1017.7 |
| 20260503035629 | 6 | 9 | 1.6 | 3.2 | 0.00 | 0.00 | 0.00 | 90 | 1017.6 |
| 20260503035127 | 6 | 337 | 4.8 | 4.8 | 0.00 | 0.00 | 0.00 | 90 | 1017.6 |
| 20260503034624 | 6 | 0 | 0.0 | 3.2 | 0.00 | 0.00 | 0.00 | 90 | 1017.5 |
| 20260503034121 | 6 | 348 | 1.6 | 3.2 | 0.00 | 0.00 | 0.00 | 90 | 1017.5 |
| 20260503033618 | 6 | 28 | 0.0 | 3.2 | 0.00 | 0.00 | 0.00 | 90 | 1017.6 |
| 20260503033116 | 6 | 25 | 0.0 | 0.0 | 0.00 | 0.00 | 0.00 | 91 | 1017.4 |
| 20260503032614 | 5 | 27 | 0.0 | 0.0 | 0.00 | 0.00 | 0.00 | 91 | 1017.5 |
| 20260503032113 | 5 | 28 | 0.0 | 0.0 | 0.00 | 0.00 | 0.00 | 90 | 1017.5 |
| 20260503031610 | 6 | 28 | 0.0 | 0.0 | 0.00 | 0.00 | 0.00 | 90 | 1017.4 |
| 20260503031107 | 5 | 27 | 0.0 | 0.0 | 0.00 | 0.00 | 0.00 | 90 | 1017.6 |
| 20260503030603 | 6 | 23 | 0.0 | 0.0 | 0.00 | 0.00 | 0.00 | 89 | 1017.5 |
| 20260503030100 | 6 | 21 | 0.0 | 0.0 | 0.00 | 0.00 | 0.00 | 88 | 1017.7 |
| 20260503025556 | 6 | 29 | 0.0 | 0.0 | 0.00 | 0.00 | 0.00 | 86 | 1017.5 |
| 20260503025054 | 7 | 32 | 0.0 | 0.0 | 0.00 | 0.00 | 0.00 | 85 | 1017.4 |
| 20260503024550 | 7 | 25 | 0.0 | 1.6 | 0.00 | 0.00 | 0.00 | 84 | 1017.4 |
| 20260503024048 | 7 | 34 | 0.0 | 0.0 | 0.00 | 0.00 | 0.00 | 83 | 1017.5 |
| 20260503023544 | 7 | 35 | 0.0 | 1.6 | 0.00 | 0.00 | 0.00 | 83 | 1017.4 |
| 20260503023042 | 7 | 48 | 0.0 | 0.0 | 0.00 | 0.00 | 0.00 | 82 | 1017.1 |
| 20260503022538 | 7 | 51 | 0.0 | 1.6 | 0.00 | 0.00 | 0.00 | 81 | 1017.1 |
| 20260503022032 | 7 | 37 | 1.6 | 1.6 | 0.00 | 0.00 | 0.00 | 81 | 1017.0 |
| 20260503021530 | 7 | 55 | 1.6 | 1.6 | 0.00 | 0.00 | 0.00 | 81 | 1017.2 |
| 20260503021026 | 8 | 44 | 3.2 | 8.0 | 0.00 | 0.00 | 0.00 | 81 | 1017.1 |
| 20260503020524 | 8 | 40 | 4.8 | 8.0 | 0.00 | 0.00 | 0.00 | 79 | 1017.2 |
| 20260503020021 | 8 | 24 | 3.2 | 9.7 | 0.00 | 0.00 | 0.00 | 79 | 1017.1 |
| 20260503015517 | 8 | 35 | 8.0 | 12.9 | 0.00 | 0.00 | 0.00 | 77 | 1016.9 |